Campeche, Mexico

8:04 AM CDT on June 28, 2017 (GMT -0500)
Alberto Acuna Ongay

Weather History for MMCP - October, 2012

Change the Weather History Date:

Saturday, October 6, 2012

  Actual Average Record
Temperature  
Mean Temperature 80 °F -  
Max Temperature 89 °F 86 °F 96 °F (2014)
Min Temperature 72 °F 71 °F 64 °F (2010)
Cooling Degree Days 16    
Growing Degree Days 30 (Base 50)    
Moisture  
Dew Point 75 °F    
Average Humidity 84    
Maximum Humidity 100    
Minimum Humidity 60    
Precipitation  
Precipitation 0.00 in - - ()
Sea Level Pressure  
Sea Level Pressure 29.88 in    
Wind  
Wind Speed 3 mph ()    
Max Wind Speed 13 mph    
Max Gust Speed 23 mph    
Visibility 5.7 miles    
Events Fog    
Averages and records for this station are not official NWS values.
T = Trace of Precipitation, MM = Missing Value Source: Averaged Metar Reports

Daily Weather History Graph

Daily Weather History Graph

Search for Another Location

Airport or City:

Trip Planner

Search our weather history database for the weather conditions in past years. The results will help you decide how hot, cold, wet, or windy it might be!

Date:

Astronomy

Oct. 06, 2012 Rise Set
Actual Time 6:54 AM CDT 6:45 PM CDT
Civil Twilight 6:32 AM CDT 7:07 PM CDT
Nautical Twilight 6:06 AM CDT 7:32 PM CDT
Astronomical Twilight 5:41 AM CDT 7:58 PM CDT
Moon 11:34 PM CDT (10/6) 12:14 PM CDT (10/6)
Length of Visible Light 12h 35m
Length of Day
11h 51m
Waning Gibbous, 65% of the Moon is Illuminated
Oct 6
Waning Gibbous
Oct 8
Last Quarter
Oct 15
New
Oct 21
First Quarter
Oct 29
Full

Hourly Weather History & Observations

Time (CDT) Temp. Heat Index Dew Point Humidity Pressure Visibility Wind Dir Wind Speed Gust Speed Precip Events Conditions
5:10 AM 73.4 °F - 73.4 °F 100% 29.87 in 0.1 mi Calm Calm - N/A Fog Fog
5:43 AM 73.4 °F - 73.4 °F 100% 29.87 in 0.1 mi Calm Calm - N/A Fog Fog
6:15 AM 73.4 °F - 73.4 °F 100% 29.89 in 3.0 mi Calm Calm - N/A Fog Fog
6:41 AM 73.4 °F - 73.4 °F 100% 29.90 in 3.0 mi Calm Calm - N/A Fog Fog
6:52 AM 73 °F - 72 °F 96% 29.90 in 6 mi Calm Calm - -   Partly Cloudy
7:41 AM 73.4 °F - 73.4 °F 100% 29.92 in 5.0 mi Calm Calm - N/A   Mostly Cloudy
8:42 AM 77.0 °F - 77.0 °F 100% 29.94 in 6.0 mi Calm Calm - N/A   Mostly Cloudy
9:48 AM 80.6 °F 86.2 °F 75.2 °F 84% 29.95 in 7.0 mi East 3.5 mph - N/A   Mostly Cloudy
9:50 AM 82 °F - 74 °F 71% 29.94 in 6 mi East 13.4 mph - -   Scattered Clouds
10:48 AM 84.2 °F 94.1 °F 77.0 °F 79% 29.93 in 7.0 mi East 5.8 mph - N/A   Mostly Cloudy
11:42 AM 84.2 °F 92.3 °F 75.2 °F 74% 29.92 in 7.0 mi Calm Calm - N/A   Scattered Clouds
12:42 PM 86.0 °F 95.1 °F 75.2 °F 70% 29.90 in 7.0 mi Calm Calm - N/A   Scattered Clouds
12:50 PM 88 °F - 76 °F 60% 29.89 in 6 mi NNW 2.2 mph - -   Partly Cloudy
1:44 PM 84.2 °F 94.1 °F 77.0 °F 79% 29.86 in 7.0 mi NW 9.2 mph - N/A   Scattered Clouds
2:45 PM 86.0 °F 95.1 °F 75.2 °F 70% 29.82 in 7.0 mi North 11.5 mph - N/A   Scattered Clouds
3:42 PM 84.2 °F 96.1 °F 78.8 °F 84% 29.81 in 7.0 mi North 11.5 mph - N/A   Scattered Clouds
3:50 PM 89 °F - 77 °F 61% 29.81 in 6 mi NNW 4.5 mph - -   Partly Cloudy
4:43 PM 84.2 °F 94.1 °F 77.0 °F 79% 29.80 in 7.0 mi North 11.5 mph 23.0 mph N/A   Scattered Clouds
5:43 PM 82.4 °F 88.2 °F 73.4 °F 74% 29.81 in 7.0 mi North 11.5 mph - N/A   Scattered Clouds
6:50 PM 80 °F - 73 °F 74% 29.82 in 5 mi NNE 4.5 mph - -   Mostly Cloudy
7:02 PM 78.8 °F - 73.4 °F 83% 29.83 in 7.0 mi North 11.5 mph - N/A   Scattered Clouds
7:42 PM 78.8 °F - 73.4 °F 83% 29.84 in 7.0 mi North 5.8 mph - N/A   Mostly Cloudy
8:41 PM 75.2 °F - 73.4 °F 94% 29.88 in 7.0 mi Calm Calm - N/A   Mostly Cloudy
9:45 PM 77.0 °F - 73.4 °F 89% 29.89 in 7.0 mi Calm Calm - N/A   Mostly Cloudy
9:50 PM 77 °F - 73 °F 83% 29.89 in 4 mi Calm Calm - -   Partly Cloudy
10:42 PM 75.2 °F - 73.4 °F 94% 29.89 in 7.0 mi East 5.8 mph - N/A   Mostly Cloudy